TimeMDT,TemperatureF,Dew PointF,Humidity,Sea Level PressureIn,VisibilityMPH,Wind Direction,Wind SpeedMPH,Gust SpeedMPH,PrecipitationIn,Events,Conditions,WindDirDegrees,DateUTC
12:51 AM,34.0,18.0,52,30.11,10.0,Calm,Calm,-,N/A,,Clear,0,2012-10-08 06:51:00
2:51 AM,32.0,19.0,59,30.10,10.0,Calm,Calm,-,N/A,,Clear,0,2012-10-08 08:51:00
3:51 AM,32.0,18.0,56,30.09,10.0,Calm,Calm,-,N/A,,Clear,0,2012-10-08 09:51:00
4:51 AM,28.0,17.1,63,30.09,10.0,ENE,3.5,-,N/A,,Clear,70,2012-10-08 10:51:00
5:51 AM,24.1,16.0,71,30.09,10.0,Calm,Calm,-,N/A,,Clear,0,2012-10-08 11:51:00
6:51 AM,25.0,17.1,72,30.09,10.0,Calm,Calm,-,N/A,,Clear,0,2012-10-08 12:51:00
7:51 AM,21.9,15.1,75,30.13,10.0,Calm,Calm,-,N/A,,Clear,0,2012-10-08 13:51:00
8:51 AM,32.0,19.0,59,30.13,10.0,Calm,Calm,-,N/A,,Clear,0,2012-10-08 14:51:00
9:51 AM,39.9,19.0,43,30.11,10.0,Calm,Calm,-,N/A,,Clear,0,2012-10-08 15:51:00
11:51 AM,53.1,18.0,25,30.05,10.0,North,5.8,-,N/A,,Clear,350,2012-10-08 17:51:00
12:51 PM,57.9,16.0,19,30.02,10.0,Calm,Calm,-,N/A,,Clear,0,2012-10-08 18:51:00
1:51 PM,63.0,10.0,13,29.99,10.0,Calm,Calm,-,N/A,,Clear,0,2012-10-08 19:51:00
2:51 PM,64.9,10.9,12,29.95,10.0,Calm,Calm,-,N/A,,Clear,0,2012-10-08 20:51:00
3:51 PM,66.0,10.9,12,29.93,10.0,Variable,4.6,-,N/A,,Clear,0,2012-10-08 21:51:00
4:51 PM,66.9,10.9,11,29.92,10.0,WNW,4.6,-,N/A,,Clear,300,2012-10-08 22:51:00
7:51 PM,54.0,17.1,23,29.96,10.0,Calm,Calm,-,N/A,,Clear,0,2012-10-09 01:51:00
8:51 PM,46.0,21.9,39,29.96,10.0,Calm,Calm,-,N/A,,Clear,0,2012-10-09 02:51:00
9:51 PM,44.1,19.9,38,29.95,10.0,ESE,3.5,-,N/A,,Clear,110,2012-10-09 03:51:00
10:51 PM,41.0,23.0,49,29.95,10.0,SSW,5.8,-,N/A,,Clear,210,2012-10-09 04:51:00
11:51 PM,37.9,21.0,51,29.94,10.0,ENE,3.5,-,N/A,,Clear,70,2012-10-09 05:51:00